User: anonymous   Login
Location: Fort Wayne
(41.1310°N, 85.1290°W)
Time: 11:40:25
(UTC-04:00)
Language:

Cosmos 2082 - Orbit

View from above orbital plane
View from above orbital plane
View from above satellite
View from above satellite

Ground track
Ground track

The orbit data is extracted from the following two-line orbital elements,

1 20624U 90046A   15186.21183427 -.00000099  00000-0 -27221-4 0  9990
2 20624 071.0399 266.7921 0013809 027.4422 332.7427 14.14155694296397
Epoch (UTC): 05 July 2015 05:05:02
Eccentricity: 0.0013809
inclination: 71.0399°
perigee height: 835 km
apogee height: 855 km
right ascension of ascending node: 266.7921°
argument of perigee: 27.4422°
revolutions per day: 14.14155694
mean anomaly at epoch: 332.7427°
orbit number at epoch: 29639

The dashed part of the orbit path shows where the satellite is in the earth's shadow,  

DLR